This is the latest recevied weather packets stored in our database for station/object WE1C. If no packets are shown the sender has not sent any weather packets the latest 10 day(s).
| Time | Temp. | Humidity | Pressure | Rain* | Wind** | Luminosity | Snow |
|---|---|---|---|---|---|---|---|
| 1787951025 | 25.56° C | 76% | 1044.2 hPa | 0 mm | - | 86 W/m² | - |
| 1787950719 | 25.56° C | 75% | 1044 hPa | 0 mm | - | 115 W/m² | - |
| 1787950416 | 25.56° C | 73% | 1043.9 hPa | 0 mm | - | 113 W/m² | - |
| 1787950112 | 25.56° C | 75% | 1044 hPa | 0 mm | - | 108 W/m² | - |
| 1787949807 | 25.56° C | 75% | 1043.8 hPa | 0 mm | - | 98 W/m² | - |
| 1787949507 | 25.56° C | 72% | 1043.7 hPa | 0 mm | - | 89 W/m² | - |
| 1787949202 | 25.56° C | 74% | 1043.9 hPa | 0 mm | - | 89 W/m² | - |
| 1787948898 | 25.56° C | 74% | 1043.9 hPa | 0 mm | - | 95 W/m² | - |
| 1787948593 | 25.56° C | 73% | 1043.9 hPa | 0 mm | - | 104 W/m² | - |
| 1787948289 | 26.11° C | 75% | 1043.9 hPa | 0 mm | - | 106 W/m² | - |
| 1787947988 | 26.11° C | 73% | 1044.3 hPa | 0 mm | - | 147 W/m² | - |
| 1787947686 | 26.11° C | 72% | 1043.9 hPa | 0 mm | - | 131 W/m² | - |
| 1787947381 | 26.67° C | 72% | 1043.9 hPa | 0 mm | - | 157 W/m² | - |
| 1787947080 | 26.67° C | 73% | 1044.1 hPa | 0 mm | - | 199 W/m² | - |
| 1787946779 | 26.11° C | 72% | 1044.1 hPa | 0 mm | - | 472 W/m² | - |
| 1787946478 | 26.11° C | 75% | 1044.2 hPa | 0 mm | - | 235 W/m² | - |
| 1787946174 | 26.11° C | 75% | 1044.3 hPa | 0 mm | - | 170 W/m² | - |
| 1787945868 | 27.22° C | 71% | 1044.1 hPa | 0 mm | - | 127 W/m² | - |
| 1787945564 | 27.78° C | 65% | 1043.9 hPa | 0 mm | - | 157 W/m² | - |
| 1787945264 | 27.78° C | 64% | 1043.8 hPa | 0 mm | - | 605 W/m² | - |
| 1787944964 | 27.78° C | 67% | 1044 hPa | 0 mm | - | 580 W/m² | - |
| 1787944661 | 27.78° C | 68% | 1044 hPa | 0 mm | - | 597 W/m² | - |
| 1787944357 | 28.33° C | 68% | 1044.1 hPa | 0 mm | - | 619 W/m² | - |
| 1787944052 | 27.78° C | 67% | 1043.9 hPa | 0 mm | - | 644 W/m² | - |
| 1787943748 | 28.33° C | 69% | 1044.2 hPa | 0 mm | - | 617 W/m² | - |
* Rain latest hour (hover to see other rain measurements)
** Current wind speed in m/s (hover to see current wind gust speed)